Flag for Germany Weather past 2 weeks in Bamberg, Bavaria, Germany

Now
50 °F

Overcast.


Feels Like: 50 °F
Forecast: 41 / 67 °F
Wind: 1 mph from South

Location: Bamberg

Current Time: May 27, 2015 at 10:17:32 PM

Latest Report: May 27, 2015 at 10:00 PM


Visibility: 44 mi

Pressure: 30.20 "Hg

Humidity: 70%

Dew point: 41 °F

Location of BambergLocation

Historic Weather in Bamberg — Graph

°F

Bamberg temperature yesterday

Maximum temperature yesterday: 58 °F (at 1:00 PM)
Minimum temperature yesterday: 50 °F (at 7:00 AM)
Average temperature yesterday: 54 °F

Past Weeks' High & Low Weather Summary

 TemperatureHumidityPressure
High74 °F (May 18, 5:00 PM)97% (May 25, 10:00 PM)30.38 "Hg (May 25, 10:00 PM)
Low34 °F (May 22, 6:00 AM)24% (May 14, 6:00 PM)29.70 "Hg (May 18, 8:00 PM)
Average56 °F63%30.05 "Hg
* Reported May 12 9:00 PM — May 27 9:00 PM, Bamberg, Weather by CustomWeather, © 2015

Note: Actual official high and low records may vary slightly from our data, if they occured in-between our weather recording intervals... More about our weather records

Advertising

Bamberg weather history for previous 24 hours

 ConditionsComfort  
Time TempWeatherWind HumidityBarometerVisibility
9:00 PM
Wed, May 27
53 °FOvercast.1 mph67%30.20 "Hg43 mi
8:00 PM54 °FOvercast.2 mph53%30.20 "Hg43 mi
7:00 PM55 °FOvercast.3 mph51%30.21 "Hg43 mi
6:00 PM55 °FOvercast.3 mph50%30.21 "Hg43 mi
5:00 PM55 °FOvercast.3 mph49%30.22 "Hg43 mi
4:00 PM55 °FOvercast.3 mph49%30.21 "Hg43 mi
3:00 PM54 °FOvercast.2 mph52%30.23 "Hg43 mi
2:00 PM53 °FOvercast.5 mph51%30.23 "Hg43 mi
1:00 PM54 °FOvercast.6 mph53%30.23 "Hg31 mi
12:00 PM53 °FOvercast.5 mph55%30.24 "Hg40 mi
11:00 AM52 °FOvercast.6 mph57%30.25 "Hg37 mi
10:00 AM51 °FOvercast.3 mph67%30.24 "Hg25 mi
9:00 AM51 °FOvercast.3 mph69%30.23 "Hg25 mi
8:00 AM49 °FPartly sunny.5 mph73%30.23 "Hg17 mi
7:00 AM46 °FSunny.1 mph85%30.23 "Hg18 mi
6:00 AM43 °FPassing clouds.1 mph91%30.22 "Hg15 mi
5:00 AM47 °FPassing clouds.2 mph79%30.20 "Hg22 mi
4:00 AM49 °FOvercast.3 mph76%30.19 "Hg34 mi
3:00 AM49 °FOvercast.2 mph74%30.19 "Hg28 mi
2:00 AM50 °FOvercast.5 mph69%30.18 "Hg43 mi
1:00 AM51 °FOvercast.3 mph68%30.18 "Hg40 mi
12:00 AM51 °FOvercast.3 mph65%30.17 "Hg43 mi
11:00 PM
Tue, May 26
53 °FOvercast.3 mph59%30.16 "Hg43 mi
10:00 PM53 °FOvercast.3 mph56%30.15 "Hg43 mi
Weather by CustomWeather, © 2015

See weather overviewHow to use our weather pages